Time,TemperatureF,DewpointF,PressureIn,WindDirection,WindDirectionDegrees,WindSpeedMPH,WindSpeedGustMPH,Humidity,HourlyPrecipIn,Conditions,Clouds,dailyrainin,SoftwareType,DateUTC
2013-01-09 00:03:00,32.0,30.0,30.29,SSW,193,0.0,0.0,94,0.00,,,0.01,,2013-01-09 05:03:00,
2013-01-09 00:12:00,32.0,30.0,30.29,SSW,193,0.0,0.0,94,0.00,,,0.01,,2013-01-09 05:12:00,
2013-01-09 00:22:00,32.0,31.0,30.30,SSW,193,0.0,0.0,95,0.00,,,0.00,,2013-01-09 05:22:00,
2013-01-09 00:33:00,32.0,31.0,30.30,SSW,193,0.0,0.0,95,0.00,,,0.00,,2013-01-09 05:33:00,
2013-01-09 00:42:00,32.0,31.0,30.30,SSW,193,0.0,0.0,95,0.00,,,0.00,,2013-01-09 05:42:00,
2013-01-09 00:53:00,32.0,31.0,30.30,SSW,193,0.0,0.0,95,0.00,,,0.00,,2013-01-09 05:53:00,
2013-01-09 01:02:00,33.0,31.0,30.30,SSW,193,0.0,0.0,91,0.00,,,0.00,,2013-01-09 06:02:00,
2013-01-09 01:12:00,33.0,31.0,30.30,SSW,193,0.0,0.0,91,0.00,,,0.00,,2013-01-09 06:12:00,
2013-01-09 01:22:00,32.0,30.0,30.30,SSW,193,0.0,0.0,92,0.00,,,0.00,,2013-01-09 06:22:00,
2013-01-09 01:32:00,32.0,30.0,30.30,SSW,193,0.0,0.0,92,0.00,,,0.00,,2013-01-09 06:32:00,
2013-01-09 01:42:00,32.0,30.0,30.30,SSW,193,0.0,0.0,92,0.00,,,0.00,,2013-01-09 06:42:00,
2013-01-09 01:52:00,31.0,29.0,30.28,SSW,193,0.0,0.0,94,0.00,,,0.00,,2013-01-09 06:52:00,
2013-01-09 02:02:00,30.0,28.0,30.28,SSW,193,0.0,0.0,94,0.00,,,0.00,,2013-01-09 07:02:00,
2013-01-09 02:12:00,30.0,28.0,30.28,SSW,193,0.0,0.0,94,0.00,,,0.00,,2013-01-09 07:12:00,
2013-01-09 02:22:00,30.0,29.0,30.27,SSW,193,0.0,0.0,96,0.00,,,0.00,,2013-01-09 07:22:00,
2013-01-09 02:32:00,31.0,30.0,30.27,SSW,193,0.0,0.0,97,0.00,,,0.00,,2013-01-09 07:32:00,
2013-01-09 02:42:00,31.0,30.0,30.27,SSW,193,0.0,0.0,97,0.00,,,0.00,,2013-01-09 07:42:00,
2013-01-09 02:52:00,31.0,30.0,30.27,SSW,193,0.0,0.0,97,0.00,,,0.00,,2013-01-09 07:52:00,
2013-01-09 03:02:00,31.0,30.0,30.28,SSW,193,0.0,0.0,96,0.00,,,0.00,,2013-01-09 08:02:00,
2013-01-09 03:12:00,31.0,30.0,30.28,SSW,193,0.0,0.0,96,0.00,,,0.00,,2013-01-09 08:12:00,
2013-01-09 03:22:00,31.0,30.0,30.29,SSW,193,0.0,0.0,95,0.00,,,0.00,,2013-01-09 08:22:00,
2013-01-09 03:32:00,31.0,30.0,30.29,SSW,193,0.0,0.0,95,0.00,,,0.00,,2013-01-09 08:32:00,
2013-01-09 03:43:00,31.0,30.0,30.29,SSW,193,0.0,0.0,95,0.00,,,0.00,,2013-01-09 08:43:00,
2013-01-09 03:52:00,31.0,30.0,30.29,SSW,193,0.0,0.0,95,0.00,,,0.00,,2013-01-09 08:52:00,
2013-01-09 04:03:00,35.0,30.0,30.29,SSW,193,0.0,0.0,82,0.00,,,0.00,,2013-01-09 09:03:00,
2013-01-09 04:12:00,35.0,30.0,30.29,SSW,193,0.0,0.0,82,0.00,,,0.00,,2013-01-09 09:12:00,
2013-01-09 04:22:00,35.0,30.0,30.29,SSW,193,0.0,0.0,82,0.00,,,0.00,,2013-01-09 09:22:00,
2013-01-09 04:32:00,35.0,30.0,30.29,SSW,193,0.0,0.0,82,0.00,,,0.00,,2013-01-09 09:32:00,
2013-01-09 05:22:00,38.0,29.0,30.28,SSW,193,0.0,0.0,71,0.00,,,0.00,,2013-01-09 10:22:00,
2013-01-09 05:32:00,38.0,29.0,30.28,SSW,193,0.0,0.0,71,0.00,,,0.00,,2013-01-09 10:32:00,
2013-01-09 05:42:00,38.0,29.0,30.28,SSW,193,0.0,0.0,71,0.00,,,0.00,,2013-01-09 10:42:00,
2013-01-09 05:52:00,38.0,29.0,30.28,SSW,193,0.0,0.0,71,0.00,,,0.00,,2013-01-09 10:52:00,
2013-01-09 06:02:00,40.0,30.0,30.28,SSW,193,0.0,0.0,67,0.00,,,0.00,,2013-01-09 11:02:00,
2013-01-09 06:12:00,40.0,30.0,30.28,SSW,193,0.0,0.0,67,0.00,,,0.00,,2013-01-09 11:12:00,
2013-01-09 06:22:00,40.0,30.0,30.28,SSW,193,0.0,0.0,67,0.00,,,0.00,,2013-01-09 11:22:00,
2013-01-09 06:33:00,41.0,30.0,30.27,SSW,193,0.0,0.0,65,0.00,,,0.00,,2013-01-09 11:33:00,
2013-01-09 06:43:00,41.0,30.0,30.27,SSW,193,0.0,0.0,65,0.00,,,0.00,,2013-01-09 11:43:00,
2013-01-09 06:53:00,41.0,30.0,30.27,SSW,193,0.0,0.0,65,0.00,,,0.00,,2013-01-09 11:53:00,
2013-01-09 07:03:00,41.0,30.0,30.27,SSW,193,0.0,0.0,65,0.00,,,0.00,,2013-01-09 12:03:00,
2013-01-09 07:12:00,41.0,30.0,30.27,SSW,193,0.0,0.0,65,0.00,,,0.00,,2013-01-09 12:12:00,
2013-01-09 17:22:00,44.0,44.0,30.34,SSW,210,4.0,5.0,100,0.00,,,0.00,,2013-01-09 22:22:00,
2013-01-09 17:53:00,44.0,44.0,30.34,SSW,210,4.0,5.0,100,0.00,,,0.00,,2013-01-09 22:53:00,
2013-01-09 18:03:00,44.0,44.0,30.34,SSW,210,4.0,5.0,100,0.00,,,0.00,,2013-01-09 23:03:00,
2013-01-09 18:13:00,44.0,44.0,30.34,SSW,210,4.0,5.0,100,0.00,,,0.00,,2013-01-09 23:13:00,
2013-01-09 18:33:00,44.0,43.0,30.36,SW,229,1.0,6.0,98,0.00,,,0.00,,2013-01-09 23:33:00,
2013-01-09 18:43:00,44.0,43.0,30.36,SW,229,1.0,6.0,98,0.00,,,0.00,,2013-01-09 23:43:00,
2013-01-09 18:53:00,44.0,43.0,30.36,SW,229,1.0,6.0,98,0.00,,,0.00,,2013-01-09 23:53:00,
2013-01-09 19:03:00,44.0,43.0,30.36,SW,229,1.0,6.0,98,0.00,,,0.00,,2013-01-10 00:03:00,
2013-01-09 21:03:00,43.0,43.0,30.44,SSW,203,0.0,0.0,100,0.00,,,0.00,,2013-01-10 02:03:00,
2013-01-09 21:13:00,43.0,43.0,30.44,SSW,203,0.0,0.0,100,0.00,,,0.00,,2013-01-10 02:13:00,
2013-01-09 21:22:00,43.0,43.0,30.44,SSW,203,0.0,0.0,100,0.00,,,0.00,,2013-01-10 02:22:00,
2013-01-09 21:32:00,43.0,43.0,30.45,South,191,2.0,5.0,100,0.00,,,0.00,,2013-01-10 02:32:00,
2013-01-09 21:42:00,43.0,43.0,30.45,South,191,2.0,5.0,100,0.00,,,0.00,,2013-01-10 02:42:00,
2013-01-09 21:52:00,42.0,42.0,30.45,SSW,204,0.0,0.0,100,0.00,,,0.00,,2013-01-10 02:52:00,
2013-01-09 21:53:00,43.0,43.0,30.45,South,191,2.0,5.0,100,0.00,,,0.00,,2013-01-10 02:53:00,
2013-01-09 22:03:00,43.0,43.0,30.45,South,191,2.0,5.0,100,0.00,,,0.00,,2013-01-10 03:03:00,
2013-01-09 22:22:00,42.0,42.0,30.45,SSW,204,0.0,0.0,100,0.00,,,0.00,,2013-01-10 03:22:00,
2013-01-09 22:33:00,42.0,42.0,30.45,SSW,204,0.0,0.0,100,0.00,,,0.00,,2013-01-10 03:33:00,
2013-01-09 22:43:00,42.0,42.0,30.45,SSW,204,0.0,0.0,100,0.00,,,0.00,,2013-01-10 03:43:00,
2013-01-09 22:52:00,41.0,41.0,30.48,South,190,0.0,0.0,100,0.00,,,0.00,,2013-01-10 03:52:00,
2013-01-09 23:22:00,41.0,41.0,30.48,South,190,0.0,0.0,100,0.00,,,0.00,,2013-01-10 04:22:00,
2013-01-09 23:32:00,41.0,41.0,30.48,South,190,0.0,0.0,100,0.00,,,0.00,,2013-01-10 04:32:00,
2013-01-09 23:43:00,41.0,41.0,30.48,South,190,0.0,0.0,100,0.00,,,0.00,,2013-01-10 04:43:00,